WAAA

Makassar/Sultan Hasanuddin International Airport

Airport
ICAO code
WAAA
IATA Code
UPG
Summary
ICAO Region
APAC
ICAO Territory
Location

Maros, South Sulawesi

Serving
Makassar
Elevation
47 ft
Coordinates
5° 4' 40" S , 119° 32' 58" E
KCC
Metar
Observation
WAAA 062300Z 12003KT 080V170 9999 FEW019 24/22 Q1009 NOSIG
Station
Ujung Pandang / Hasanuddin
Date/Time
2022-12-06 23:00:00
Wind direction
120°
Wind speed
03 kts
Lowest cloud amount
few clouds
Temperature
24°C
Dew point
22°C
Humidity
88%
QNH
1009 hPa
Weather condition
n/a

Description

Airport located 12nm north east of the city of Makassar, South Sulawesi, Indonesia.

Climatology

Tropical Rainforest climate (Köppen climate classification Af) - almost no distinct seasons, average daily temperature around 27°C throughout the year. Extensive cloud cover and heavy rainfall prevent temperatures from rising much over 33°C. The diurnal temperature change is between 2°C and 5°C which is greater than the annual temperature range of 2°C. Rainfall is heavy and is usually convectional and in the afternoon.

Airport map

Aerial View

SKYbrary Partners:

Safety knowledge contributed by: